#timestamp,LO_Frequency,Hit,StdDev 
1663578015.1,286047000.6,N
1663578035.9,286047000.9,N
1663578055.7,286046998.2,N
1663578075.5,286047000.8,N
1663578095.4,286046995.8,N
1663578115.2,286046996.1,N
1663578135.0,286046996.9,N
1663578136.0,286046996.9,N
1663578155.8,286047002.2,N
1663578175.6,286047000.1,N
1663578195.5,286047007.4,N
1663578215.3,286047004.5,N
1663578235.1,286047002.0,N
1663578255.9,286047011.9,Y
1663578275.7,286046998.9,P
1663578295.6,286046996.1,P
1663578315.4,286046995.5,N
1663578335.2,286046993.5,N
1663578355.1,286046993.5,N
1663578356.0,286046993.5,N
1663578375.8,286046992.2,N
1663578395.7,286046989.7,Y
1663578415.5,286046994.9,P
1663578435.3,286046995.4,P
1663578455.2,286046995.9,P
1663578475.0,286046994.5,Y
1663578475.9,286046994.5,P
1663578495.8,286047001.9,P
1663578515.6,286047001.2,N
1663578535.4,286046997.1,N
1663578555.3,286046994.1,N
1663578575.1,286046994.8,N
1663578576.0,286046994.8,N
1663578595.8,286046992.0,N
1663578615.7,286046990.9,N
1663578635.5,286046994.4,N
1663578655.3,286046996.6,N
1663578675.2,286046995.7,N
1663578695.1,286046994.9,N
1663578696.0,286046994.9,N
1663578715.8,286046993.8,N
1663578735.6,286046997.2,N
1663578755.5,286047001.9,N
1663578775.3,286047000.9,N
1663578795.1,286047001.4,N
1663578815.9,286047001.2,N
1663578835.7,286046994.9,N
1663578855.6,286046991.7,N
1663578875.4,286046991.3,N
1663578895.2,286046994.2,N
1663578915.1,286046993.0,N
1663578916.0,286046993.0,N
1663578935.8,286046991.2,N
1663578955.7,286046988.1,Y
1663578975.5,286046989.0,P
1663578995.3,286046989.6,P
1663579015.2,286046986.6,P
1663579035.0,286046982.1,Y
1663579035.9,286046982.1,P
1663579055.8,286046988.5,N
1663579075.6,286046987.4,P
1663579095.4,286046991.5,N
1663579115.3,286046993.8,N
1663579135.1,286046994.1,N
1663579155.9,286046994.6,N
1663579175.7,286046994.1,N
1663579195.5,286046994.1,N
1663579215.4,286046990.6,N
1663579235.2,286046988.6,Y
1663579255.0,286046998.9,P
1663579255.9,286046998.9,N
1663579275.8,286046995.4,N
1663579295.6,286046995.6,N
1663579315.5,286046997.6,N
1663579335.3,286046997.8,N
1663579355.1,286046996.0,N
1663579375.9,286046992.4,Y
1663579395.7,286046994.3,P
1663579415.6,286046991.4,P
1663579435.4,286046989.9,P
1663579455.2,286046991.6,Y
1663579475.1,286047000.7,P
1663579476.0,286047000.7,N
1663579495.8,286046996.7,N
1663579515.6,286046996.0,N
1663579535.5,286046993.4,N
1663579555.3,286046995.5,N
1663579575.2,286046994.3,N
1663579595.9,286046988.9,Y
1663579615.7,286046996.4,P
1663579635.6,286046997.2,P
1663579655.4,286046994.5,P
1663579675.2,286046994.8,Y
1663579695.1,286046995.9,P
1663579696.0,286046995.9,P
1663579715.8,286046990.5,P
1663579735.7,286046990.9,Y
1663579755.5,286046997.3,P
1663579775.4,286047003.7,N
1663579795.2,286047002.6,N
1663579815.0,286047005.8,N
1663579815.9,286047005.8,N
1663579835.8,286047013.8,Y
1663579855.6,286047016.8,P
1663579875.5,286047012.7,N
1663579895.3,286047009.3,N
1663579915.1,286047009.0,N
1663579935.9,286047004.3,N
1663579955.7,286047002.7,N
1663579975.5,286046998.6,N
1663579995.4,286046995.9,N
1663580015.2,286046994.7,N
1663580035.1,286046992.7,N
1663580036.0,286046992.7,N
1663580055.8,286046989.0,N
1663580075.6,286046985.8,N
1663580095.5,286046984.3,N
1663580115.3,286046983.0,N
1663580135.1,286046975.7,N
1663580155.9,286046972.5,N
1663580175.7,286046973.7,N
1663580195.5,286046974.0,N
1663580215.4,286046969.4,N
1663580235.2,286046971.8,N
1663580255.1,286046971.3,N
1663580256.0,286046971.3,N
1663580275.8,286046970.0,N
1663580295.6,286046970.0,N
1663580315.5,286046966.9,N
1663580335.3,286046963.2,N
1663580355.1,286046965.7,N
1663580375.9,286046964.6,N
1663580395.7,286046970.8,N
1663580415.6,286046966.5,N
1663580435.4,286046967.6,N
1663580455.2,286046965.4,N
1663580475.1,286046967.4,N
1663580476.0,286046967.4,N
1663580495.8,286046963.0,Y
1663580515.6,286046988.1,P
1663580535.5,286046986.1,N
1663580555.3,286046982.2,P
1663580575.2,286046982.7,Y
1663580595.9,286046997.2,P
1663580615.7,286046997.8,N
1663580635.6,286046995.8,N
1663580655.4,286046991.8,N
1663580675.2,286046989.0,N
1663580695.1,286046988.4,N
1663580696.0,286046988.4,N
1663580715.8,286046983.7,Y
1663580735.7,286046992.3,P
1663580755.5,286046999.0,N
1663580775.3,286047002.3,N
1663580795.2,286047002.2,N
1663580815.0,286047002.1,N
1663580815.9,286047002.1,N
1663580835.8,286046998.1,N
1663580855.6,286047005.1,N
1663580875.4,286047012.4,N
1663580895.3,286047012.0,N
1663580915.1,286047011.4,N
1663580935.8,286047007.8,N
1663580955.7,286047011.8,N
1663580975.5,286047009.9,N
1663580995.0,286047003.6,N
1663580995.9,286047003.6,N
1663581015.7,286047000.1,N
1663581035.6,286047001.1,N
1663581055.4,286047002.3,N
1663581075.3,286047003.3,N
1663581095.1,286047005.1,N
1663581096.0,286047005.1,N
1663581115.8,286047007.4,N
1663581135.7,286047005.9,N
1663581155.5,286047003.2,N
1663581175.3,286047006.8,N
1663581195.2,286047003.8,N
1663581215.0,286047002.6,N
1663581215.9,286047002.6,N
1663581235.8,286046996.7,N
1663581255.6,286046996.6,N
1663581275.4,286046998.0,N
1663581295.3,286046993.8,N
1663581315.1,286046991.4,N
1663581335.8,286046987.6,N
1663581355.1,286046989.8,N
1663581375.8,286046988.3,N
1663581395.7,286046984.3,N
1663581415.5,286046988.2,N
1663581435.4,286046983.7,N
1663581485.2,286046978.5,E
1663581495.1,286046985.4,N
1663581515.9,286046995.9,P
1663581535.7,286046994.3,N
1663581555.5,286046993.7,N
1663581575.4,286046993.5,N
1663581595.2,286046993.6,N
